75.3070; 175.5540;1; 392.988; 246.492;1961.10.27 12:00:00;-999.0;-999.0;-999.0; 999.0;    .000;    .000;   0.000; 90;
75.2867; 175.5092;2; 393.201; 246.634;1961.10.27 18:00:00;-999.0;-999.0;-999.0; 999.0;   2.591;    .250;   0.432;209;
75.2663; 175.4645;2; 393.413; 246.775;1961.10.28 00:00:00;-999.0;-999.0;-999.0; 999.0;   5.184;    .500;   0.432;209;
75.2459; 175.4200;2; 393.626; 246.917;1961.10.28 06:00:00;-999.0;-999.0;-999.0; 999.0;   7.775;    .750;   0.432;209;
75.2256; 175.3755;2; 393.839; 247.059;1961.10.28 12:00:00;-999.0;-999.0;-999.0; 999.0;  10.366;   1.000;   0.432;209;
75.2052; 175.3312;2; 394.051; 247.201;1961.10.28 18:00:00;-999.0;-999.0;-999.0; 999.0;  12.958;   1.250;   0.432;209;
75.1848; 175.2870;2; 394.264; 247.342;1961.10.29 00:00:00;-999.0;-999.0;-999.0; 999.0;  15.550;   1.500;   0.432;209;
75.1644; 175.2430;2; 394.477; 247.484;1961.10.29 06:00:00;-999.0;-999.0;-999.0; 999.0;  18.140;   1.750;   0.432;209;
75.1440; 175.1990;2; 394.690; 247.626;1961.10.29 12:00:00;-999.0;-999.0;-999.0; 999.0;  20.733;   2.000;   0.432;209;
75.1351; 175.1741;2; 394.781; 247.703;1961.10.29 18:00:00;-999.0;-999.0;-999.0; 999.0;  21.947;   2.250;   0.202;216;
75.1263; 175.1493;2; 394.872; 247.781;1961.10.30 00:00:00;-999.0;-999.0;-999.0; 999.0;  23.161;   2.500;   0.202;216;
75.1174; 175.1245;2; 394.962; 247.859;1961.10.30 06:00:00;-999.0;-999.0;-999.0; 999.0;  24.374;   2.750;   0.202;216;
75.1085; 175.0998;2; 395.054; 247.937;1961.10.30 12:00:00;-999.0;-999.0;-999.0; 999.0;  25.589;   3.000;   0.202;216;
75.0996; 175.0750;2; 395.145; 248.015;1961.10.30 18:00:00;-999.0;-999.0;-999.0; 999.0;  26.803;   3.250;   0.202;216;
75.0908; 175.0503;2; 395.236; 248.093;1961.10.31 00:00:00;-999.0;-999.0;-999.0; 999.0;  28.017;   3.500;   0.202;216;
75.0819; 175.0257;2; 395.327; 248.170;1961.10.31 06:00:00;-999.0;-999.0;-999.0; 999.0;  29.232;   3.750;   0.202;216;
75.0730; 175.0010;2; 395.418; 248.248;1961.10.31 12:00:00;-999.0;-999.0;-999.0; 999.0;  30.446;   4.000;   0.202;216;
75.0717; 174.9976;2; 395.431; 248.259;1961.10.31 18:00:00;-999.0;-999.0;-999.0; 999.0;  30.615;   4.250;   0.028;215;
75.0705; 174.9942;2; 395.443; 248.270;1961.11.01 00:00:00;-999.0;-999.0;  13.0; 112.0;  30.784;   4.500;   0.028;215;
75.0693; 174.9909;2; 395.456; 248.280;1961.11.01 06:00:00;  -2.8; 995.7;  12.0; 112.0;  30.953;   4.750;   0.028;215;
75.0680; 174.9875;2; 395.469; 248.291;1961.11.01 12:00:00;  -3.5; 996.7;  13.0; 112.0;  31.123;   5.000;   0.028;215;
75.0667; 174.9841;2; 395.482; 248.302;1961.11.01 18:00:00;  -3.8; 998.0;  12.0; 112.0;  31.292;   5.250;   0.028;215;
75.0655; 174.9807;2; 395.495; 248.312;1961.11.02 00:00:00;  -6.2;-999.0;  13.0; 112.0;  31.462;   5.500;   0.028;215;
75.0642; 174.9774;2; 395.508; 248.323;1961.11.02 06:00:00; -11.0;1000.5;  13.0;  90.0;  31.631;   5.750;   0.028;215;
75.0630; 174.9740;2; 395.520; 248.334;1961.11.02 12:00:00; -12.5;1000.2;  12.0;  90.0;  31.800;   6.000;   0.028;215;
75.0671; 174.9678;2; 395.474; 248.347;1961.11.02 18:00:00;  -8.8;1001.3;   9.0; 112.0;  32.292;   6.250;   0.082;339;
75.0713; 174.9615;2; 395.427; 248.361;1961.11.03 00:00:00; -16.3;1008.9;   4.0; 180.0;  32.784;   6.500;   0.082;339;
75.0754; 174.9553;2; 395.380; 248.375;1961.11.03 06:00:00; -16.8;1013.1;   2.0;  22.0;  33.277;   6.750;   0.082;339;
75.0795; 174.9490;2; 395.334; 248.388;1961.11.03 12:00:00; -10.8;1013.6;   9.0;  90.0;  33.768;   7.000;   0.082;339;
75.0836; 174.9428;2; 395.287; 248.402;1961.11.03 18:00:00; -11.4;1014.4;   9.0;  90.0;  34.262;   7.250;   0.082;339;
75.0878; 174.9365;2; 395.241; 248.415;1961.11.04 00:00:00; -13.1;1015.8;   9.0;  90.0;  34.754;   7.500;   0.082;339;
75.0919; 174.9303;2; 395.194; 248.429;1961.11.04 06:00:00; -17.3;1017.0;   8.0;  90.0;  35.246;   7.750;   0.082;339;
75.0960; 174.9240;2; 395.147; 248.443;1961.11.04 12:00:00; -14.0;1018.0;   9.0; 112.0;  35.738;   8.000;   0.082;339;
75.1619; 174.6462;2; 394.357; 249.156;1961.11.04 18:00:00; -13.9;1018.2;   8.0;  90.0;  46.534;   8.250;   1.799;313;
75.2274; 174.3658;2; 393.566; 249.869;1961.11.05 00:00:00; -14.4;1019.5;   7.0;  90.0;  57.330;   8.500;   1.799;312;
75.2926; 174.0831;2; 392.776; 250.582;1961.11.05 06:00:00; -16.1;1020.2;   6.0; 135.0;  68.125;   8.750;   1.799;312;
75.3574; 173.7977;2; 391.985; 251.295;1961.11.05 12:00:00; -18.8;1020.6;   6.0;  90.0;  78.920;   9.000;   1.799;312;
75.4219; 173.5099;2; 391.195; 252.008;1961.11.05 18:00:00; -19.1;1020.0;   4.0; 135.0;  89.717;   9.250;   1.799;312;
75.4860; 173.2195;2; 390.405; 252.721;1961.11.06 00:00:00; -19.3;1020.3;   4.0; 135.0; 100.512;   9.500;   1.799;311;
75.5497; 172.9265;2; 389.615; 253.433;1961.11.06 06:00:00; -18.7;1019.6;   4.0; 180.0; 111.307;   9.750;   1.799;311;
75.6130; 172.6310;2; 388.826; 254.146;1961.11.06 12:00:00; -13.5;1018.9;   3.0; 180.0; 122.103;  10.000;   1.799;311;
75.6309; 172.3619;2; 388.536; 254.846;1961.11.06 18:00:00; -10.9;1018.3;   7.0; 248.0; 129.795;  10.250;   1.282;285;
75.6484; 172.0921;2; 388.246; 255.547;1961.11.07 00:00:00; -19.5;1020.0;   4.0; 248.0; 137.487;  10.500;   1.282;285;
75.6657; 171.8217;2; 387.957; 256.247;1961.11.07 06:00:00; -25.3;1021.0;   5.0; 292.0; 145.179;  10.750;   1.282;284;
75.6826; 171.5506;2; 387.667; 256.947;1961.11.07 12:00:00; -20.0;1022.7;   5.0; 292.0; 152.871;  11.000;   1.282;284;
75.6992; 171.2789;2; 387.377; 257.648;1961.11.07 18:00:00; -17.1;1023.9;   7.0; 270.0; 160.563;  11.250;   1.282;284;
75.7154; 171.0065;2; 387.088; 258.348;1961.11.08 00:00:00; -18.4;1026.0;   7.0; 292.0; 168.255;  11.500;   1.282;284;
75.7314; 170.7336;2; 386.799; 259.048;1961.11.08 06:00:00; -23.5;1027.1;   6.0; 270.0; 175.946;  11.750;   1.282;283;
75.7470; 170.4600;2; 386.509; 259.748;1961.11.08 12:00:00; -20.0;1027.1;   8.0; 292.0; 183.638;  12.000;   1.282;283;
75.7388; 170.5179;2; 386.623; 259.609;1961.11.08 18:00:00; -22.5;1026.3;   8.0; 270.0; 185.466;  12.250;   0.305;120;
75.7306; 170.5757;2; 386.738; 259.470;1961.11.09 00:00:00; -24.2;1023.5;   8.0; 270.0; 187.294;  12.500;   0.305;120;
75.7224; 170.6334;2; 386.852; 259.331;1961.11.09 06:00:00; -21.6;1019.6;  12.0; 270.0; 189.122;  12.750;   0.305;120;
75.7141; 170.6910;2; 386.967; 259.192;1961.11.09 12:00:00; -19.6;1015.1;  12.0; 270.0; 190.950;  13.000;   0.305;120;
75.7059; 170.7486;2; 387.081; 259.053;1961.11.09 18:00:00; -15.5;1013.2;   7.0; 292.0; 192.778;  13.250;   0.305;120;
75.6976; 170.8062;2; 387.195; 258.914;1961.11.10 00:00:00; -21.9;1016.4;   5.0;  68.0; 194.606;  13.500;   0.305;120;
75.6893; 170.8636;2; 387.310; 258.775;1961.11.10 06:00:00; -23.7;1015.7;   0.0;   0.0; 196.435;  13.750;   0.305;120;
75.6810; 170.9210;2; 387.424; 258.635;1961.11.10 12:00:00; -18.0;1008.8;   5.0; 225.0; 198.262;  14.000;   0.305;120;
75.6805; 170.9591;2; 387.446; 258.534;1961.11.10 18:00:00; -11.4; 997.3;  10.0; 248.0; 199.312;  14.250;   0.175; 93;
75.6800; 170.9973;2; 387.467; 258.433;1961.11.11 00:00:00;  -9.8; 986.1;   7.0; 270.0; 200.363;  14.500;   0.175; 93;
75.6796; 171.0354;2; 387.488; 258.332;1961.11.11 06:00:00; -16.9; 984.0;   7.0; 315.0; 201.412;  14.750;   0.175; 93;
75.6790; 171.0735;2; 387.510; 258.231;1961.11.11 12:00:00; -16.5; 986.1;  10.0;  22.0; 202.463;  15.000;   0.175; 93;
75.6786; 171.1116;2; 387.531; 258.129;1961.11.11 18:00:00; -20.8; 994.6;  14.0;  45.0; 203.513;  15.250;   0.175; 93;
75.6780; 171.1498;2; 387.553; 258.028;1961.11.12 00:00:00; -24.4;1002.2;   9.0;  45.0; 204.563;  15.500;   0.175; 93;
75.6775; 171.1879;2; 387.574; 257.927;1961.11.12 06:00:00; -27.6;1004.7;   4.0;  22.0; 205.613;  15.750;   0.175; 93;
75.6770; 171.2260;2; 387.596; 257.826;1961.11.12 12:00:00; -24.0;-999.0;   5.0; 225.0; 206.663;  16.000;   0.175; 93;
75.6681; 171.2477;2; 387.701; 257.783;1961.11.12 18:00:00; -19.1; 989.4;  10.0; 225.0; 207.817;  16.250;   0.192;149;
75.6593; 171.2694;2; 387.806; 257.739;1961.11.13 00:00:00; -12.1; 980.3;   8.0; 248.0; 208.969;  16.500;   0.192;149;
75.6504; 171.2911;2; 387.911; 257.696;1961.11.13 06:00:00; -10.0; 978.2;   4.0; 315.0; 210.122;  16.750;   0.192;149;
75.6415; 171.3127;2; 388.016; 257.652;1961.11.13 12:00:00;  -7.3; 974.5;   7.0; 248.0; 211.275;  17.000;   0.192;149;
75.6326; 171.3343;2; 388.121; 257.609;1961.11.13 18:00:00;  -6.6; 970.8;  11.0; 270.0; 212.429;  17.250;   0.192;149;
75.6238; 171.3559;2; 388.226; 257.566;1961.11.14 00:00:00; -22.8; 981.4;   8.0; 315.0; 213.582;  17.500;   0.192;149;
75.6149; 171.3775;2; 388.331; 257.522;1961.11.14 06:00:00; -22.4; 984.8;   5.0; 248.0; 214.734;  17.750;   0.192;149;
75.6060; 171.3990;2; 388.435; 257.479;1961.11.14 12:00:00; -11.4; 979.3;  14.0; 248.0; 215.887;  18.000;   0.192;149;
75.5943; 171.4023;2; 388.564; 257.489;1961.11.14 18:00:00; -12.2; 981.7;  11.0; 270.0; 217.197;  18.250;   0.218;176;
75.5825; 171.4055;2; 388.693; 257.500;1961.11.15 00:00:00; -14.2; 984.6;  10.0; 270.0; 218.507;  18.500;   0.218;176;
75.5707; 171.4088;2; 388.821; 257.510;1961.11.15 06:00:00; -19.5; 986.4;   1.0; 360.0; 219.817;  18.750;   0.218;176;
75.5590; 171.4120;2; 388.950; 257.521;1961.11.15 12:00:00; -19.6; 987.9;   1.0; 360.0; 221.126;  19.000;   0.218;176;
75.5472; 171.4153;2; 389.079; 257.531;1961.11.15 18:00:00; -24.8; 989.4;   3.0; 360.0; 222.436;  19.250;   0.218;176;
75.5355; 171.4185;2; 389.207; 257.541;1961.11.16 00:00:00; -31.2; 993.2;   4.0; 270.0; 223.745;  19.500;   0.218;176;
75.5238; 171.4218;2; 389.336; 257.552;1961.11.16 06:00:00; -29.4; 995.7;   5.0; 270.0; 225.055;  19.750;   0.218;176;
75.5120; 171.4250;2; 389.464; 257.562;1961.11.16 12:00:00; -26.9; 998.1;   4.0; 292.0; 226.364;  20.000;   0.218;176;
75.5050; 171.4358;2; 389.545; 257.544;1961.11.16 18:00:00; -27.6;1000.5;   4.0; 270.0; 227.199;  20.250;   0.139;159;
75.4980; 171.4466;2; 389.625; 257.527;1961.11.17 00:00:00; -28.9;1003.0;   4.0; 270.0; 228.033;  20.500;   0.139;159;
75.4910; 171.4573;2; 389.705; 257.509;1961.11.17 06:00:00; -31.2;1005.0;   4.0; 270.0; 228.867;  20.750;   0.139;159;
75.4840; 171.4681;2; 389.786; 257.491;1961.11.17 12:00:00; -29.4;1006.2;   4.0; 270.0; 229.701;  21.000;   0.139;159;
75.4770; 171.4788;2; 389.866; 257.473;1961.11.17 18:00:00; -33.1;1008.4;   3.0; 270.0; 230.535;  21.250;   0.139;159;
75.4700; 171.4896;2; 389.946; 257.455;1961.11.18 00:00:00; -33.3;1010.2;   3.0; 292.0; 231.369;  21.500;   0.139;159;
75.4630; 171.5003;2; 390.026; 257.438;1961.11.18 06:00:00; -31.2;1011.1;   2.0; 292.0; 232.203;  21.750;   0.139;159;
75.4560; 171.5110;2; 390.106; 257.420;1961.11.18 12:00:00; -30.7;1012.2;   0.0;   0.0; 233.037;  22.000;   0.139;159;
75.4529; 171.5305;2; 390.148; 257.372;1961.11.18 18:00:00; -30.4;1011.3;   2.0; 202.0; 233.683;  22.250;   0.108;122;
75.4498; 171.5500;2; 390.190; 257.323;1961.11.19 00:00:00; -31.0;1009.9;   2.0; 180.0; 234.329;  22.500;   0.108;122;
75.4466; 171.5696;2; 390.232; 257.275;1961.11.19 06:00:00; -32.7;1008.4;   2.0; 225.0; 234.976;  22.750;   0.108;122;
75.4435; 171.5891;2; 390.273; 257.227;1961.11.19 12:00:00; -30.3;1006.3;   1.0; 180.0; 235.622;  23.000;   0.108;123;
75.4404; 171.6086;2; 390.315; 257.179;1961.11.19 18:00:00; -29.5;1002.7;   2.0; 112.0; 236.268;  23.250;   0.108;122;
75.4373; 171.6281;2; 390.357; 257.131;1961.11.20 00:00:00; -28.7; 999.6;   3.0; 135.0; 236.914;  23.500;   0.108;123;
75.4341; 171.6475;2; 390.399; 257.083;1961.11.20 06:00:00; -32.7; 996.7;   3.0; 135.0; 237.561;  23.750;   0.108;123;
75.4310; 171.6670;2; 390.440; 257.035;1961.11.20 12:00:00; -32.4; 993.7;   3.0; 158.0; 238.207;  24.000;   0.108;123;
75.4311; 171.6726;2; 390.441; 257.019;1961.11.20 18:00:00; -31.4; 991.0;   3.0; 180.0; 238.365;  24.250;   0.026; 85;
75.4313; 171.6783;2; 390.442; 257.004;1961.11.21 00:00:00; -30.6; 989.7;   3.0; 135.0; 238.523;  24.500;   0.026; 85;
75.4314; 171.6839;2; 390.443; 256.988;1961.11.21 06:00:00; -29.5; 989.3;   2.0; 135.0; 238.681;  24.750;   0.026; 85;
75.4315; 171.6895;2; 390.444; 256.973;1961.11.21 12:00:00; -32.5; 991.4;   3.0;  45.0; 238.839;  25.000;   0.026; 85;
75.4316; 171.6951;2; 390.445; 256.957;1961.11.21 18:00:00; -36.3; 995.6;   3.0; 338.0; 238.997;  25.250;   0.026; 85;
75.4317; 171.7007;2; 390.446; 256.941;1961.11.22 00:00:00; -36.0;1000.5;   3.0; 338.0; 239.155;  25.500;   0.026; 85;
75.4319; 171.7064;2; 390.447; 256.926;1961.11.22 06:00:00; -36.6;1004.9;   3.0; 338.0; 239.313;  25.750;   0.026; 85;
75.4320; 171.7120;2; 390.447; 256.910;1961.11.22 12:00:00; -36.0;1008.4;   3.0;  22.0; 239.471;  26.000;   0.026; 85;
75.4355; 171.7031;2; 390.406; 256.929;1961.11.22 18:00:00; -35.5;1010.3;   3.0;  45.0; 239.933;  26.250;   0.077;328;
75.4390; 171.6943;2; 390.365; 256.948;1961.11.23 00:00:00; -36.7;1011.9;   3.0;  68.0; 240.394;  26.500;   0.077;328;
75.4425; 171.6854;2; 390.323; 256.966;1961.11.23 06:00:00; -36.8;1012.9;   3.0;  68.0; 240.855;  26.750;   0.077;327;
75.4460; 171.6765;2; 390.282; 256.985;1961.11.23 12:00:00; -33.3;1014.5;   4.0;  68.0; 241.317;  27.000;   0.077;327;
75.4495; 171.6677;2; 390.240; 257.004;1961.11.23 18:00:00; -31.9;1015.3;   4.0;  68.0; 241.778;  27.250;   0.077;328;
75.4530; 171.6588;2; 390.198; 257.022;1961.11.24 00:00:00; -33.5;1017.6;   3.0;  68.0; 242.240;  27.500;   0.077;328;
75.4565; 171.6499;2; 390.157; 257.041;1961.11.24 06:00:00; -31.3;1018.8;   2.0;  90.0; 242.701;  27.750;   0.077;327;
75.4600; 171.6410;2; 390.116; 257.059;1961.11.24 12:00:00; -33.7;1018.8;   3.0;  90.0; 243.163;  28.000;   0.077;328;
75.4655; 171.6204;2; 390.048; 257.107;1961.11.24 18:00:00; -34.3;1018.0;   3.0;  68.0; 244.002;  28.250;   0.140;317;
75.4710; 171.5998;2; 389.980; 257.154;1961.11.25 00:00:00; -35.7;1017.9;   3.0;  90.0; 244.842;  28.500;   0.140;317;
75.4765; 171.5792;2; 389.912; 257.201;1961.11.25 06:00:00; -36.3;1017.3;   3.0;  90.0; 245.681;  28.750;   0.140;317;
75.4820; 171.5586;2; 389.844; 257.248;1961.11.25 12:00:00; -36.9;1017.0;   3.0;  68.0; 246.521;  29.000;   0.140;317;
75.4875; 171.5380;2; 389.776; 257.295;1961.11.25 18:00:00; -35.7;1015.2;   4.0;  68.0; 247.360;  29.250;   0.140;317;
75.4930; 171.5173;2; 389.708; 257.343;1961.11.26 00:00:00; -32.9;1014.3;   5.0;  90.0; 248.199;  29.500;   0.140;317;
75.4985; 171.4967;2; 389.640; 257.390;1961.11.26 06:00:00; -29.1;1012.2;   7.0;  68.0; 249.039;  29.750;   0.140;317;
75.5040; 171.4760;2; 389.572; 257.437;1961.11.26 12:00:00; -27.9;1010.2;   8.0;  90.0; 249.878;  30.000;   0.140;317;
75.4994; 171.4362;2; 389.606; 257.553;1961.11.26 18:00:00; -23.9;1005.0;   9.0;  90.0; 251.099;  30.250;   0.204;245;
75.4948; 171.3963;2; 389.639; 257.668;1961.11.27 00:00:00; -22.3; 997.8;   8.0;  68.0; 252.320;  30.500;   0.204;245;
75.4902; 171.3566;2; 389.673; 257.784;1961.11.27 06:00:00; -15.4; 987.7;   9.0;  45.0; 253.541;  30.750;   0.203;245;
75.4856; 171.3168;2; 389.706; 257.899;1961.11.27 12:00:00;  -9.7; 981.3;   5.0; 112.0; 254.763;  31.000;   0.204;245;
75.4809; 171.2771;2; 389.740; 258.015;1961.11.27 18:00:00;  -9.7; 981.7;   3.0; 248.0; 255.984;  31.250;   0.204;245;
75.4763; 171.2374;2; 389.774; 258.130;1961.11.28 00:00:00; -17.1; 986.0;   9.0; 338.0; 257.206;  31.500;   0.204;245;
75.4716; 171.1977;2; 389.807; 258.246;1961.11.28 06:00:00; -17.3; 980.2;  12.0; 360.0; 258.427;  31.750;   0.204;245;
75.4670; 171.1580;2; 389.841; 258.362;1961.11.28 12:00:00; -15.6; 969.2;  12.0;  22.0; 259.648;  32.000;   0.204;245;
75.4577; 171.0930;2; 389.914; 258.554;1961.11.28 18:00:00; -17.0; 964.0;  14.0; 338.0; 261.738;  32.250;   0.348;240;
75.4484; 171.0280;2; 389.988; 258.747;1961.11.29 00:00:00; -21.0; 969.6;  15.0; 315.0; 263.828;  32.500;   0.348;240;
75.4390; 170.9631;2; 390.061; 258.939;1961.11.29 06:00:00; -20.9; 982.8;  11.0; 292.0; 265.918;  32.750;   0.348;240;
75.4296; 170.8983;2; 390.134; 259.132;1961.11.29 12:00:00; -28.7; 996.8;   7.0; 270.0; 268.008;  33.000;   0.348;240;
75.4203; 170.8336;2; 390.207; 259.324;1961.11.29 18:00:00; -34.2;1007.5;   3.0; 248.0; 270.098;  33.250;   0.348;240;
75.4109; 170.7690;2; 390.280; 259.517;1961.11.30 00:00:00; -34.1;1014.2;   5.0; 202.0; 272.187;  33.500;   0.348;240;
75.4014; 170.7045;2; 390.353; 259.709;1961.11.30 06:00:00; -34.4;1018.0;   3.0; 180.0; 274.277;  33.750;   0.348;240;
75.3920; 170.6400;2; 390.427; 259.902;1961.11.30 12:00:00; -35.8;1021.6;   3.0; 180.0; 276.367;  34.000;   0.348;240;
75.3773; 170.6008;2; 390.568; 260.035;1961.11.30 18:00:00; -36.5;1023.0;   1.0; 180.0; 278.339;  34.250;   0.329;214;
75.3625; 170.5618;2; 390.710; 260.168;1961.12.01 00:00:00; -34.8;1023.8;   0.0;   0.0; 280.310;  34.500;   0.329;214;
75.3478; 170.5228;2; 390.852; 260.301;1961.12.01 06:00:00; -34.5;1024.0;   2.0;  90.0; 282.282;  34.750;   0.329;214;
75.3331; 170.4839;2; 390.993; 260.435;1961.12.01 12:00:00; -34.4;1024.7;   1.0;  90.0; 284.254;  35.000;   0.329;214;
75.3183; 170.4450;2; 391.135; 260.568;1961.12.01 18:00:00; -34.2;1025.4;   1.0;  90.0; 286.226;  35.250;   0.329;214;
75.3035; 170.4063;2; 391.277; 260.701;1961.12.02 00:00:00; -33.1;1026.8;   0.0;   0.0; 288.197;  35.500;   0.329;214;
75.2888; 170.3676;2; 391.418; 260.834;1961.12.02 06:00:00; -32.4;1026.8;   0.0;   0.0; 290.169;  35.750;   0.329;214;
75.2740; 170.3290;2; 391.560; 260.967;1961.12.02 12:00:00; -29.9;1026.6;   0.0;   0.0; 292.141;  36.000;   0.329;214;
75.2609; 170.3470;2; 391.710; 260.942;1961.12.02 18:00:00; -27.6;1025.5;   2.0; 158.0; 293.686;  36.250;   0.258;161;
75.2478; 170.3649;2; 391.860; 260.917;1961.12.03 00:00:00; -25.9;1024.5;   3.0; 180.0; 295.231;  36.500;   0.258;161;
75.2346; 170.3829;2; 392.010; 260.891;1961.12.03 06:00:00; -28.8;1024.0;   3.0; 158.0; 296.775;  36.750;   0.257;161;
75.2215; 170.4008;2; 392.161; 260.866;1961.12.03 12:00:00; -32.1;1023.4;   2.0; 158.0; 298.321;  37.000;   0.258;161;
75.2084; 170.4186;2; 392.311; 260.841;1961.12.03 18:00:00; -32.6;1022.5;   2.0; 112.0; 299.866;  37.250;   0.257;161;
75.1953; 170.4364;2; 392.461; 260.815;1961.12.04 00:00:00; -33.5;1022.4;   3.0; 112.0; 301.411;  37.500;   0.258;161;
75.1821; 170.4542;2; 392.612; 260.790;1961.12.04 06:00:00; -31.3;1022.0;   3.0; 135.0; 302.956;  37.750;   0.258;161;
75.1690; 170.4720;2; 392.762; 260.765;1961.12.04 12:00:00; -25.6;1022.3;   2.0; 135.0; 304.501;  38.000;   0.257;161;
75.1705; 170.4830;2; 392.751; 260.732;1961.12.04 18:00:00; -27.6;1021.8;   2.0; 135.0; 304.856;  38.250;   0.059; 62;
75.1720; 170.4940;2; 392.740; 260.699;1961.12.05 00:00:00; -32.0;1021.7;   2.0; 135.0; 305.210;  38.500;   0.059; 62;
75.1735; 170.5050;2; 392.728; 260.665;1961.12.05 06:00:00; -34.5;1021.0;   2.0; 158.0; 305.565;  38.750;   0.059; 62;
75.1750; 170.5160;2; 392.717; 260.632;1961.12.05 12:00:00; -36.3;1020.9;   2.0; 135.0; 305.920;  39.000;   0.059; 62;
75.1765; 170.5270;2; 392.706; 260.599;1961.12.05 18:00:00; -37.0;1020.2;   2.0; 135.0; 306.274;  39.250;   0.059; 62;
75.1780; 170.5380;2; 392.695; 260.566;1961.12.06 00:00:00; -31.4;1020.5;   2.0; 135.0; 306.629;  39.500;   0.059; 62;
75.1795; 170.5490;2; 392.684; 260.533;1961.12.06 06:00:00; -31.7;1019.9;   2.0; 112.0; 306.984;  39.750;   0.059; 62;
75.1810; 170.5600;2; 392.673; 260.500;1961.12.06 12:00:00; -27.6;1019.4;   3.0; 112.0; 307.338;  40.000;   0.059; 62;
75.1878; 170.5442;2; 392.592; 260.531;1961.12.06 18:00:00; -28.5;1017.7;   4.0; 112.0; 308.214;  40.250;   0.146;329;
75.1945; 170.5283;2; 392.512; 260.563;1961.12.07 00:00:00; -30.5;1016.6;   3.0; 112.0; 309.090;  40.500;   0.146;329;
75.2013; 170.5125;2; 392.432; 260.594;1961.12.07 06:00:00; -33.7;1015.8;   1.0; 158.0; 309.965;  40.750;   0.146;329;
75.2080; 170.4966;2; 392.351; 260.626;1961.12.07 12:00:00; -35.1;1016.7;   2.0; 225.0; 310.840;  41.000;   0.146;329;
75.2148; 170.4807;2; 392.271; 260.658;1961.12.07 18:00:00; -37.9;1018.5;   2.0; 248.0; 311.716;  41.250;   0.146;329;
75.2215; 170.4648;2; 392.191; 260.689;1961.12.08 00:00:00; -39.5;1021.9;   2.0; 202.0; 312.592;  41.500;   0.146;329;
75.2282; 170.4489;2; 392.110; 260.721;1961.12.08 06:00:00; -41.4;1024.3;   1.0; 135.0; 313.466;  41.750;   0.146;329;
75.2350; 170.4330;2; 392.030; 260.753;1961.12.08 12:00:00; -36.9;1025.7;   4.0;  90.0; 314.342;  42.000;   0.146;329;
75.2400; 170.4021;2; 391.961; 260.829;1961.12.08 18:00:00; -33.9;1024.5;   5.0;  90.0; 315.381;  42.250;   0.173;302;
75.2450; 170.3711;2; 391.893; 260.905;1961.12.09 00:00:00; -31.1;1023.0;   4.0;  90.0; 316.420;  42.500;   0.173;302;
75.2500; 170.3402;2; 391.824; 260.981;1961.12.09 06:00:00; -28.6;1021.1;   6.0;  90.0; 317.458;  42.750;   0.173;302;
75.2550; 170.3092;2; 391.756; 261.057;1961.12.09 12:00:00; -24.0;1020.1;   7.0; 112.0; 318.496;  43.000;   0.173;302;
75.2600; 170.2782;2; 391.687; 261.133;1961.12.09 18:00:00; -19.5;1018.2;   6.0; 112.0; 319.536;  43.250;   0.173;302;
75.2650; 170.2471;2; 391.618; 261.209;1961.12.10 00:00:00; -18.0;1018.0;   7.0; 112.0; 320.574;  43.500;   0.173;302;
75.2700; 170.2161;2; 391.550; 261.285;1961.12.10 06:00:00; -17.8;1017.2;   7.0; 112.0; 321.613;  43.750;   0.173;302;
75.2750; 170.1850;2; 391.481; 261.361;1961.12.10 12:00:00; -17.5;1014.8;   7.0; 112.0; 322.652;  44.000;   0.173;302;
75.2727; 170.1282;2; 391.479; 261.521;1961.12.10 18:00:00; -24.3;1014.0;   3.0; 180.0; 324.278;  44.250;   0.271;261;
75.2703; 170.0714;2; 391.477; 261.682;1961.12.11 00:00:00; -25.6;1017.2;   6.0; 248.0; 325.904;  44.500;   0.271;261;
75.2680; 170.0146;2; 391.475; 261.842;1961.12.11 06:00:00; -32.2;1020.3;   5.0; 270.0; 327.531;  44.750;   0.271;261;
75.2656; 169.9579;2; 391.473; 262.002;1961.12.11 12:00:00; -34.6;1022.5;   4.0; 270.0; 329.158;  45.000;   0.271;261;
75.2632; 169.9011;2; 391.471; 262.163;1961.12.11 18:00:00; -35.8;1023.4;   2.0; 248.0; 330.784;  45.250;   0.271;261;
75.2608; 169.8444;2; 391.469; 262.323;1961.12.12 00:00:00; -36.0;1023.6;   4.0; 248.0; 332.411;  45.500;   0.271;261;
75.2584; 169.7877;2; 391.467; 262.484;1961.12.12 06:00:00; -36.9;1023.8;   4.0; 248.0; 334.037;  45.750;   0.271;261;
75.2560; 169.7310;2; 391.466; 262.644;1961.12.12 12:00:00; -36.6;1024.1;   4.0; 248.0; 335.664;  46.000;   0.271;260;
75.2209; 169.6943;2; 391.826; 262.814;1961.12.12 18:00:00; -36.6;1024.8;   4.0; 248.0; 339.703;  46.250;   0.673;195;
75.1858; 169.6577;2; 392.186; 262.983;1961.12.13 00:00:00; -35.9;1025.4;   3.0; 248.0; 343.742;  46.500;   0.673;195;
75.1507; 169.6213;2; 392.547; 263.153;1961.12.13 06:00:00; -33.7;1025.1;   5.0; 248.0; 347.782;  46.750;   0.673;195;
75.1155; 169.5851;2; 392.907; 263.323;1961.12.13 12:00:00; -29.6;1025.6;   5.0; 248.0; 351.822;  47.000;   0.673;195;
75.0804; 169.5491;2; 393.268; 263.492;1961.12.13 18:00:00; -29.6;1027.2;   3.0; 270.0; 355.862;  47.250;   0.673;195;
75.0453; 169.5132;2; 393.628; 263.662;1961.12.14 00:00:00; -29.4;1029.3;   4.0; 248.0; 359.901;  47.500;   0.673;195;
75.0101; 169.4775;2; 393.989; 263.832;1961.12.14 06:00:00; -30.2;1030.4;   3.0; 248.0; 363.941;  47.750;   0.673;195;
74.9750; 169.4420;2; 394.350; 264.002;1961.12.14 12:00:00; -33.3;1029.9;   5.0; 248.0; 367.981;  48.000;   0.673;195;
75.0063; 169.4956;2; 394.040; 263.789;1961.12.14 18:00:00; -32.9;1030.1;   5.0; 248.0; 371.789;  48.250;   0.635; 24;
75.0376; 169.5494;2; 393.730; 263.577;1961.12.15 00:00:00; -35.4;1031.3;   4.0; 248.0; 375.595;  48.500;   0.634; 24;
75.0688; 169.6034;2; 393.420; 263.365;1961.12.15 06:00:00; -36.9;1032.0;   4.0; 225.0; 379.402;  48.750;   0.634; 24;
75.1001; 169.6577;2; 393.111; 263.152;1961.12.15 12:00:00; -36.3;1032.3;   2.0; 180.0; 383.209;  49.000;   0.635; 24;
75.1313; 169.7122;2; 392.801; 262.940;1961.12.15 18:00:00; -27.7;1028.7;   4.0; 158.0; 387.015;  49.250;   0.634; 24;
75.1626; 169.7669;2; 392.491; 262.727;1961.12.16 00:00:00; -23.9;1023.6;   8.0; 135.0; 390.822;  49.500;   0.635; 24;
75.1938; 169.8218;2; 392.182; 262.515;1961.12.16 06:00:00; -25.5;1019.4;   3.0; 135.0; 394.629;  49.750;   0.635; 24;
75.2250; 169.8770;2; 391.872; 262.303;1961.12.16 12:00:00; -29.9;1020.3;   1.0;  90.0; 398.435;  50.000;   0.634; 24;